UTA9471 UNAA-UNKL

Flight info

Callsign UTA9471
Flight time 0h 42m
Altitude 21000
Route SELTI1Z SELTI B951 ROGMA ROGMA2Z
Aircraft B738/M-SDE2E3FGHIRWXY/LB1

Departure

Time 2026-05-08 15:17
Airport Abakan International Airport (UNAA)

Arrival

Time 2026-05-08 15:59
Airport Krasnoyarsk International Airport (UNKL)
Time Latitude Longitude Altitude Speed Heading
2026-05-08 14:31 53.75015 91.39895 840 ft 0 kts 342°
2026-05-08 15:10 53.75032 91.39886 840 ft 4 kts 342°
2026-05-08 15:11 53.75049 91.39876 840 ft 1 kts 341°
2026-05-08 15:11 53.75051 91.39875 840 ft 0 kts 341°
2026-05-08 15:11 53.75053 91.39874 840 ft 1 kts 343°
2026-05-08 15:11 53.75057 91.39872 840 ft 0 kts 345°
2026-05-08 15:12 53.75058 91.39871 840 ft 0 kts 342°
2026-05-08 15:12 53.75087 91.39812 840 ft 13 kts 280°
2026-05-08 15:12 53.75112 91.39694 840 ft 9 kts 298°
2026-05-08 15:12 53.75153 91.39632 840 ft 7 kts 333°
2026-05-08 15:13 53.75198 91.39604 840 ft 6 kts 342°
2026-05-08 15:13 53.75221 91.39588 840 ft 0 kts 330°
2026-05-08 15:14 53.75233 91.39576 840 ft 6 kts 321°
2026-05-08 15:14 53.75235 91.39484 840 ft 10 kts 226°
2026-05-08 15:14 53.75170 91.39422 840 ft 11 kts 206°
2026-05-08 15:15 53.75099 91.39367 840 ft 8 kts 205°
2026-05-08 15:15 53.75096 91.39365 840 ft 0 kts 205°
2026-05-08 15:16 53.75095 91.39364 840 ft 0 kts 205°
2026-05-08 15:17 53.75050 91.39329 840 ft 32 kts 205°
2026-05-08 15:17 53.74583 91.38966 840 ft 111 kts 206°
2026-05-08 15:17 53.73679 91.38264 854 ft 172 kts 206°
2026-05-08 15:17 53.72572 91.37394 1650 ft 172 kts 207°
2026-05-08 15:18 53.71551 91.36574 2544 ft 168 kts 207°
2026-05-08 15:18 53.70448 91.35710 2957 ft 182 kts 207°
2026-05-08 15:18 53.69262 91.34792 3428 ft 193 kts 207°
2026-05-08 15:18 53.68016 91.33826 3845 ft 206 kts 206°
2026-05-08 15:19 53.66704 91.32682 4242 ft 219 kts 219°
2026-05-08 15:19 53.65834 91.30521 4576 ft 234 kts 255°
2026-05-08 15:19 53.65885 91.27730 5070 ft 247 kts 288°
2026-05-08 15:19 53.66709 91.25216 5694 ft 257 kts 308°
2026-05-08 15:20 53.68138 91.23310 6241 ft 270 kts 338°
2026-05-08 15:20 53.69990 91.22992 7066 ft 273 kts
2026-05-08 15:20 53.71797 91.23827 7817 ft 276 kts 17°
2026-05-08 15:20 53.73613 91.24918 8592 ft 278 kts 17°
2026-05-08 15:21 53.75436 91.25912 9292 ft 281 kts 15°
2026-05-08 15:21 53.77316 91.26816 10068 ft 282 kts 13°
2026-05-08 15:21 53.79253 91.27685 10532 ft 295 kts 13°
2026-05-08 15:21 53.81258 91.28565 10891 ft 311 kts 13°
2026-05-08 15:22 53.83409 91.29511 11269 ft 326 kts 12°
2026-05-08 15:22 53.85657 91.30502 11666 ft 341 kts 12°
2026-05-08 15:22 53.88005 91.31528 12058 ft 356 kts 13°
2026-05-08 15:22 53.90426 91.32601 12480 ft 371 kts 13°
2026-05-08 15:23 53.92942 91.33766 13178 ft 377 kts 13°
2026-05-08 15:23 53.95483 91.34924 13939 ft 380 kts 13°
2026-05-08 15:23 53.98028 91.36066 14645 ft 385 kts 12°
2026-05-08 15:23 54.00632 91.37228 15418 ft 388 kts 12°
2026-05-08 15:24 54.03236 91.38390 16141 ft 391 kts 12°
2026-05-08 15:24 54.05885 91.39575 16829 ft 396 kts 11°
2026-05-08 15:24 54.08528 91.40761 17533 ft 399 kts 11°
2026-05-08 15:24 54.11232 91.41979 18200 ft 403 kts 11°
2026-05-08 15:25 54.13942 91.43201 18876 ft 407 kts 11°
2026-05-08 15:25 54.16680 91.44438 19502 ft 411 kts 11°
2026-05-08 15:25 54.19459 91.45578 20148 ft 413 kts
2026-05-08 15:25 54.22259 91.46428 20735 ft 415 kts
2026-05-08 15:26 54.25131 91.47129 20930 ft 420 kts
2026-05-08 15:26 54.28038 91.47770 20953 ft 418 kts
2026-05-08 15:26 54.30878 91.48380 20955 ft 415 kts
2026-05-08 15:26 54.33739 91.48996 20960 ft 415 kts
2026-05-08 15:27 54.36606 91.49622 20962 ft 416 kts
2026-05-08 15:27 54.39441 91.50143 20962 ft 413 kts
2026-05-08 15:27 54.42313 91.50427 20963 ft 411 kts 358°
2026-05-08 15:27 54.45177 91.50563 20964 ft 411 kts 357°
2026-05-08 15:28 54.48008 91.50648 20967 ft 411 kts 356°
2026-05-08 15:28 54.50877 91.50736 20964 ft 411 kts 357°
2026-05-08 15:28 54.53708 91.50837 20963 ft 411 kts 357°
2026-05-08 15:28 54.56579 91.50954 20964 ft 412 kts 357°
2026-05-08 15:29 54.59437 91.51081 20965 ft 411 kts 357°
2026-05-08 15:29 54.62290 91.51217 20966 ft 411 kts 357°
2026-05-08 15:29 54.65107 91.51354 20964 ft 411 kts 358°
2026-05-08 15:29 54.67976 91.51498 20964 ft 411 kts 358°
2026-05-08 15:30 54.70840 91.51640 20969 ft 411 kts 357°
2026-05-08 15:30 54.73709 91.51785 20971 ft 412 kts 358°
2026-05-08 15:30 54.76543 91.51930 20967 ft 412 kts 358°
2026-05-08 15:30 54.79409 91.52077 20969 ft 411 kts 358°
2026-05-08 15:31 54.82267 91.52223 20968 ft 411 kts 358°
2026-05-08 15:31 54.85093 91.52370 20965 ft 411 kts 358°
2026-05-08 15:31 54.87954 91.52516 20963 ft 412 kts 358°
2026-05-08 15:31 54.90816 91.52663 20963 ft 411 kts 358°
2026-05-08 15:32 54.93635 91.52809 20962 ft 411 kts 358°
2026-05-08 15:32 54.96533 91.52959 20962 ft 412 kts 358°
2026-05-08 15:32 54.99379 91.53100 20961 ft 411 kts 358°
2026-05-08 15:32 55.02232 91.53229 20959 ft 411 kts 357°
2026-05-08 15:33 55.05084 91.53351 20957 ft 411 kts 358°
2026-05-08 15:33 55.07921 91.53471 20956 ft 411 kts 357°
2026-05-08 15:33 55.10777 91.53593 20955 ft 411 kts 358°
2026-05-08 15:33 55.13650 91.53718 20958 ft 412 kts 357°
2026-05-08 15:34 55.16478 91.53841 20956 ft 411 kts 358°
2026-05-08 15:34 55.19343 91.53968 20956 ft 411 kts 358°
2026-05-08 15:34 55.22205 91.54097 20951 ft 412 kts 358°
2026-05-08 15:34 55.25030 91.54224 20946 ft 411 kts 358°
2026-05-08 15:35 55.27896 91.54353 20744 ft 410 kts 358°
2026-05-08 15:35 55.30722 91.54484 20493 ft 400 kts 358°
2026-05-08 15:35 55.33441 91.54614 20287 ft 391 kts 358°
2026-05-08 15:35 55.36162 91.54866 20082 ft 392 kts
2026-05-08 15:36 55.38838 91.55615 19880 ft 397 kts 10°
2026-05-08 15:36 55.41470 91.57225 19674 ft 401 kts 21°
2026-05-08 15:36 55.43867 91.59647 19472 ft 403 kts 31°
2026-05-08 15:36 55.46055 91.62744 19267 ft 404 kts 38°
2026-05-08 15:37 55.48111 91.66141 19060 ft 403 kts 41°
2026-05-08 15:37 55.50075 91.69589 18813 ft 404 kts 43°
2026-05-08 15:37 55.52035 91.73122 18563 ft 402 kts 43°
2026-05-08 15:37 55.53984 91.76670 18304 ft 400 kts 43°
2026-05-08 15:38 55.55889 91.80136 18055 ft 398 kts 43°
2026-05-08 15:38 55.57813 91.83621 17797 ft 396 kts 43°
2026-05-08 15:38 55.59748 91.87116 17542 ft 396 kts 43°
2026-05-08 15:38 55.61651 91.90550 17292 ft 394 kts 43°
2026-05-08 15:39 55.63571 91.94012 17038 ft 393 kts 43°
2026-05-08 15:39 55.65480 91.97457 16784 ft 391 kts 43°
2026-05-08 15:39 55.67341 92.00824 16512 ft 374 kts 43°
2026-05-08 15:39 55.69096 92.04009 16264 ft 358 kts 43°
2026-05-08 15:40 55.70801 92.07104 16010 ft 342 kts 43°
2026-05-08 15:40 55.72436 92.10074 15756 ft 330 kts 43°
2026-05-08 15:40 55.74000 92.12908 15543 ft 326 kts 42°
2026-05-08 15:40 55.75642 92.15688 15281 ft 325 kts 37°
2026-05-08 15:41 55.77411 92.18162 15029 ft 323 kts 32°
2026-05-08 15:41 55.79257 92.20406 14774 ft 321 kts 30°
2026-05-08 15:41 55.81107 92.22532 14519 ft 320 kts 29°
2026-05-08 15:41 55.82982 92.24681 14267 ft 320 kts 29°
2026-05-08 15:42 55.84845 92.26849 14016 ft 319 kts 30°
2026-05-08 15:42 55.86667 92.28992 13763 ft 318 kts 30°
2026-05-08 15:42 55.88516 92.31179 13424 ft 319 kts 30°
2026-05-08 15:42 55.90346 92.33355 12938 ft 322 kts 30°
2026-05-08 15:43 55.92211 92.35577 12372 ft 323 kts 30°
2026-05-08 15:43 55.94075 92.37802 11828 ft 319 kts 30°
2026-05-08 15:43 55.95875 92.39951 11287 ft 315 kts 30°
2026-05-08 15:43 55.97681 92.42112 10861 ft 308 kts 30°
2026-05-08 15:44 55.99445 92.44224 10637 ft 301 kts 29°
2026-05-08 15:44 56.01168 92.46284 10469 ft 297 kts 30°
2026-05-08 15:44 56.02861 92.48315 10342 ft 291 kts 30°
2026-05-08 15:44 56.04515 92.50294 10211 ft 288 kts 27°
2026-05-08 15:45 56.06255 92.52016 10069 ft 285 kts 20°
2026-05-08 15:45 56.08078 92.53457 9903 ft 282 kts 18°
2026-05-08 15:45 56.09851 92.54755 9767 ft 278 kts 17°
2026-05-08 15:45 56.11674 92.56084 9376 ft 283 kts 17°
2026-05-08 15:46 56.13451 92.57414 9113 ft 279 kts 18°
2026-05-08 15:46 56.15243 92.58781 8754 ft 278 kts 18°
2026-05-08 15:46 56.17019 92.60147 8409 ft 277 kts 18°
2026-05-08 15:46 56.18765 92.61489 8110 ft 275 kts 18°
2026-05-08 15:47 56.20524 92.62840 7849 ft 270 kts 18°
2026-05-08 15:47 56.22196 92.64164 7685 ft 264 kts 21°
2026-05-08 15:47 56.23734 92.65977 7328 ft 270 kts 41°
2026-05-08 15:47 56.24777 92.68900 6651 ft 290 kts 70°
2026-05-08 15:48 56.24455 92.75912 5984 ft 275 kts 111°
2026-05-08 15:48 56.23746 92.78941 5978 ft 256 kts 120°
2026-05-08 15:48 56.22738 92.81438 5997 ft 241 kts 135°
2026-05-08 15:49 56.21727 92.83767 5973 ft 240 kts 119°
2026-05-08 15:49 56.21024 92.86495 5985 ft 242 kts 113°
2026-05-08 15:49 56.20375 92.89304 5979 ft 243 kts 113°
2026-05-08 15:49 56.19743 92.92048 5854 ft 238 kts 113°
2026-05-08 15:50 56.19106 92.94819 5495 ft 240 kts 113°
2026-05-08 15:50 56.18355 92.97438 5180 ft 238 kts 130°
2026-05-08 15:50 56.17206 92.99538 4948 ft 231 kts 142°
2026-05-08 15:50 56.16012 93.01379 4810 ft 222 kts 143°
2026-05-08 15:51 56.14851 93.03159 4530 ft 221 kts 144°
2026-05-08 15:51 56.13550 93.04544 4237 ft 214 kts 168°
2026-05-08 15:51 56.12150 93.04745 4072 ft 194 kts 197°
2026-05-08 15:51 56.10988 93.03789 3830 ft 181 kts 226°
2026-05-08 15:52 56.10328 93.01990 3513 ft 174 kts 257°
2026-05-08 15:52 56.10207 92.99855 3200 ft 173 kts 270°
2026-05-08 15:52 56.10209 92.97703 2971 ft 170 kts 270°
2026-05-08 15:52 56.10209 92.95618 2975 ft 171 kts 270°
2026-05-08 15:53 56.10215 92.93444 2980 ft 176 kts 271°
2026-05-08 15:53 56.10271 92.91287 2974 ft 174 kts 273°
2026-05-08 15:53 56.10339 92.89124 2971 ft 169 kts 273°
2026-05-08 15:53 56.10402 92.87112 2982 ft 153 kts 273°
2026-05-08 15:54 56.10455 92.85319 2975 ft 144 kts 273°
2026-05-08 15:54 56.10509 92.83504 2977 ft 146 kts 273°
2026-05-08 15:54 56.10563 92.81705 2968 ft 144 kts 272°
2026-05-08 15:54 56.10586 92.79910 2978 ft 143 kts 274°
2026-05-08 15:55 56.10738 92.78172 2975 ft 142 kts 283°
2026-05-08 15:55 56.11326 92.74758 2976 ft 143 kts 288°
2026-05-08 15:55 56.11666 92.73113 2974 ft 141 kts 289°
2026-05-08 15:56 56.12035 92.71456 2978 ft 143 kts 290°
2026-05-08 15:56 56.12408 92.69820 2976 ft 142 kts 291°
2026-05-08 15:56 56.12797 92.68153 2875 ft 145 kts 291°
2026-05-08 15:56 56.13191 92.66489 2665 ft 154 kts 292°
2026-05-08 15:57 56.13645 92.64732 3251 ft 139 kts 292°
2026-05-08 15:57 56.13959 92.63123 2888 ft 152 kts 289°
2026-05-08 15:57 56.14361 92.61390 2447 ft 151 kts 294°
2026-05-08 15:57 56.14807 92.59701 2026 ft 147 kts 291°
2026-05-08 15:58 56.15180 92.58022 1775 ft 147 kts 293°
2026-05-08 15:58 56.15620 92.56343 1529 ft 150 kts 294°
2026-05-08 15:58 56.16025 92.54608 1305 ft 151 kts 293°
2026-05-08 15:58 56.16443 92.52884 1089 ft 151 kts 291°
2026-05-08 15:59 56.16851 92.51174 951 ft 137 kts 292°
2026-05-08 15:59 56.17134 92.49980 951 ft 75 kts 294°
2026-05-08 15:59 56.17302 92.49278 951 ft 56 kts 294°
2026-05-08 15:59 56.17399 92.48886 951 ft 23 kts 300°
2026-05-08 16:00 56.17502 92.48686 951 ft 21 kts 324°
2026-05-08 16:00 56.17579 92.48586 951 ft 0 kts 324°
2026-05-08 16:01 56.17579 92.48585 951 ft 0 kts 324°
2026-05-08 16:01 56.17580 92.48584 951 ft 0 kts 324°
2026-05-08 16:02 56.17582 92.48581 951 ft 1 kts 324°
2026-05-08 16:02 56.17593 92.48566 951 ft 2 kts 324°
2026-05-08 16:02 56.17623 92.48528 951 ft 10 kts 324°
2026-05-08 16:02 56.17678 92.48456 951 ft 9 kts 325°
2026-05-08 16:03 56.17727 92.48398 951 ft 7 kts 338°
2026-05-08 16:03 56.17773 92.48402 951 ft 6 kts 20°
2026-05-08 16:03 56.17809 92.48428 951 ft 5 kts 24°
2026-05-08 16:03 56.17839 92.48452 951 ft 5 kts 24°
2026-05-08 16:04 56.17889 92.48491 951 ft 7 kts 24°
2026-05-08 16:04 56.17934 92.48526 951 ft 4 kts 24°
2026-05-08 16:04 56.17943 92.48533 951 ft 0 kts 23°